TimeCDT,TemperatureF,Dew PointF,Humidity,Sea Level PressureIn,VisibilityMPH,Wind Direction,Wind SpeedMPH,Gust SpeedMPH,PrecipitationIn,Events,Conditions,WindDirDegrees,DateUTC
12:34 AM,42.8,33.8,70,30.01,10.0,NNW,5.8,-,N/A,,Clear,340,2012-09-26 05:34:00
12:53 AM,42.8,35.6,76,30.01,10.0,NNW,6.9,-,N/A,,Clear,340,2012-09-26 05:53:00
1:13 AM,41.0,35.6,81,30.02,10.0,NNW,6.9,-,N/A,,Clear,340,2012-09-26 06:13:00
1:34 AM,41.0,35.6,81,30.03,10.0,North,6.9,-,N/A,,Clear,350,2012-09-26 06:34:00
1:53 AM,41.0,35.6,81,30.03,10.0,North,6.9,-,N/A,,Clear,350,2012-09-26 06:53:00
2:13 AM,41.0,35.6,81,30.02,10.0,North,8.1,-,N/A,,Clear,360,2012-09-26 07:13:00
2:34 AM,39.2,33.8,81,30.02,10.0,North,6.9,-,N/A,,Clear,350,2012-09-26 07:34:00
3:13 AM,39.2,33.8,81,30.03,10.0,North,5.8,-,N/A,,Clear,350,2012-09-26 08:13:00
3:34 AM,39.2,33.8,81,30.03,10.0,North,5.8,-,N/A,,Clear,360,2012-09-26 08:34:00
3:53 AM,37.4,33.8,87,30.04,10.0,North,5.8,-,N/A,,Clear,10,2012-09-26 08:53:00
4:13 AM,37.4,35.6,93,30.05,10.0,NNE,4.6,-,N/A,,Clear,30,2012-09-26 09:13:00
4:34 AM,37.4,33.8,87,30.05,10.0,NNE,5.8,-,N/A,,Clear,20,2012-09-26 09:34:00
4:53 AM,37.4,35.6,93,30.06,10.0,NNE,5.8,-,N/A,,Clear,20,2012-09-26 09:53:00
5:13 AM,37.4,33.8,87,30.07,10.0,NNE,5.8,-,N/A,,Clear,20,2012-09-26 10:13:00
5:33 AM,37.4,33.8,87,30.08,10.0,NNE,4.6,-,N/A,,Clear,30,2012-09-26 10:33:00
5:53 AM,35.6,33.8,93,30.09,10.0,NNE,6.9,-,N/A,,Clear,20,2012-09-26 10:53:00
6:13 AM,35.6,33.8,93,30.09,10.0,North,5.8,-,N/A,,Clear,10,2012-09-26 11:13:00
6:34 AM,35.6,33.8,93,30.09,10.0,North,5.8,-,N/A,,Clear,360,2012-09-26 11:34:00
6:53 AM,33.8,32.0,93,30.10,10.0,North,6.9,-,N/A,,Clear,10,2012-09-26 11:53:00
7:14 AM,35.6,33.8,93,30.10,10.0,North,5.8,-,N/A,,Clear,10,2012-09-26 12:14:00
7:33 AM,35.6,33.8,93,30.11,10.0,North,4.6,-,N/A,,Clear,360,2012-09-26 12:33:00
7:53 AM,35.6,33.8,93,30.11,10.0,North,4.6,-,N/A,,Clear,360,2012-09-26 12:53:00
8:14 AM,37.4,35.6,93,30.12,10.0,North,3.5,-,N/A,,Clear,350,2012-09-26 13:14:00
8:33 AM,39.2,37.4,93,30.13,10.0,North,3.5,-,N/A,,Clear,360,2012-09-26 13:33:00
8:53 AM,42.8,37.4,81,30.13,10.0,North,4.6,-,N/A,,Clear,360,2012-09-26 13:53:00
9:14 AM,44.6,39.2,81,30.14,10.0,North,4.6,-,N/A,,Clear,360,2012-09-26 14:14:00
9:33 AM,46.4,39.2,76,30.15,10.0,North,5.8,-,N/A,,Clear,10,2012-09-26 14:33:00
9:53 AM,48.2,39.2,71,30.15,10.0,NNE,3.5,-,N/A,,Clear,20,2012-09-26 14:53:00
10:14 AM,51.8,37.4,58,30.16,10.0,NE,6.9,-,N/A,,Clear,40,2012-09-26 15:14:00
10:33 AM,51.8,35.6,54,30.16,10.0,NNE,6.9,-,N/A,,Clear,20,2012-09-26 15:33:00
11:14 AM,53.6,35.6,51,30.17,10.0,NNE,5.8,-,N/A,,Clear,30,2012-09-26 16:14:00
11:33 AM,55.4,35.6,47,30.17,10.0,Calm,Calm,-,N/A,,Clear,0,2012-09-26 16:33:00
11:53 AM,55.4,35.6,47,30.16,10.0,NNE,4.6,-,N/A,,Clear,30,2012-09-26 16:53:00
12:14 PM,57.2,35.6,44,30.17,10.0,NNE,5.8,-,N/A,,Clear,20,2012-09-26 17:14:00
12:33 PM,57.2,33.8,41,30.17,10.0,NE,4.6,18.4,N/A,,Clear,50,2012-09-26 17:33:00
12:53 PM,57.2,33.8,41,30.17,10.0,NNE,5.8,-,N/A,,Clear,30,2012-09-26 17:53:00
1:14 PM,59.0,32.0,36,30.16,10.0,NW,5.8,-,N/A,,Clear,320,2012-09-26 18:14:00
1:33 PM,60.8,30.2,31,30.16,10.0,North,5.8,-,N/A,,Clear,10,2012-09-26 18:33:00
1:53 PM,60.8,32.0,34,30.16,10.0,NNW,6.9,-,N/A,,Clear,340,2012-09-26 18:53:00
2:14 PM,60.8,30.2,31,30.15,10.0,NNW,5.8,-,N/A,,Clear,340,2012-09-26 19:14:00
2:33 PM,62.6,30.2,30,30.15,10.0,North,9.2,-,N/A,,Clear,360,2012-09-26 19:33:00
2:53 PM,62.6,30.2,30,30.15,10.0,North,8.1,-,N/A,,Clear,10,2012-09-26 19:53:00
3:14 PM,62.6,30.2,30,30.15,10.0,NNE,4.6,-,N/A,,Clear,20,2012-09-26 20:14:00
3:33 PM,62.6,30.2,30,30.15,10.0,North,5.8,-,N/A,,Clear,10,2012-09-26 20:33:00
3:54 PM,62.6,30.2,30,30.14,10.0,NNE,8.1,-,N/A,,Clear,20,2012-09-26 20:54:00
4:13 PM,62.6,30.2,30,30.15,10.0,Calm,Calm,-,N/A,,Clear,0,2012-09-26 21:13:00
4:33 PM,62.6,30.2,30,30.14,10.0,North,6.9,-,N/A,,Clear,10,2012-09-26 21:33:00
4:54 PM,62.6,30.2,30,30.15,10.0,North,3.5,-,N/A,,Clear,10,2012-09-26 21:54:00
5:13 PM,62.6,30.2,30,30.15,10.0,NNE,4.6,-,N/A,,Clear,30,2012-09-26 22:13:00
5:33 PM,62.6,30.2,30,30.15,10.0,NNW,3.5,-,N/A,,Clear,340,2012-09-26 22:33:00
5:54 PM,62.6,30.2,30,30.15,10.0,NNE,4.6,-,N/A,,Clear,20,2012-09-26 22:54:00
6:13 PM,60.8,30.2,31,30.15,10.0,NE,4.6,-,N/A,,Clear,50,2012-09-26 23:13:00
6:33 PM,59.0,28.4,31,30.16,10.0,ENE,4.6,-,N/A,,Clear,60,2012-09-26 23:33:00
6:54 PM,55.4,28.4,36,30.16,10.0,ENE,4.6,-,N/A,,Clear,60,2012-09-26 23:54:00
7:33 PM,53.6,30.2,41,30.17,10.0,NE,4.6,-,N/A,,Clear,50,2012-09-27 00:33:00
7:54 PM,51.8,30.2,44,30.18,10.0,NE,4.6,-,N/A,,Clear,50,2012-09-27 00:54:00
8:13 PM,51.8,30.2,44,30.19,10.0,Calm,Calm,-,N/A,,Clear,0,2012-09-27 01:13:00
8:33 PM,50.0,30.2,47,30.19,10.0,Calm,Calm,-,N/A,,Clear,0,2012-09-27 01:33:00
8:54 PM,50.0,30.2,47,30.19,10.0,Calm,Calm,-,N/A,,Clear,0,2012-09-27 01:54:00
9:13 PM,48.2,30.2,50,30.20,10.0,Calm,Calm,-,N/A,,Clear,0,2012-09-27 02:13:00
9:33 PM,46.4,30.2,53,30.20,10.0,Calm,Calm,-,N/A,,Clear,0,2012-09-27 02:33:00
9:54 PM,48.2,30.2,50,30.20,10.0,ENE,3.5,-,N/A,,Clear,70,2012-09-27 02:54:00
10:13 PM,48.2,32.0,54,30.20,10.0,East,3.5,-,N/A,,Clear,80,2012-09-27 03:13:00
10:33 PM,46.4,32.0,57,30.21,10.0,East,4.6,-,N/A,,Clear,90,2012-09-27 03:33:00
10:54 PM,44.6,33.8,66,30.21,10.0,East,4.6,-,N/A,,Clear,100,2012-09-27 03:54:00
11:13 PM,44.6,33.8,66,30.22,10.0,ESE,4.6,-,N/A,,Clear,110,2012-09-27 04:13:00
11:34 PM,44.6,33.8,66,30.22,10.0,ESE,5.8,-,N/A,,Clear,110,2012-09-27 04:34:00
11:54 PM,42.8,33.8,70,30.22,10.0,ESE,4.6,-,N/A,,Clear,120,2012-09-27 04:54:00